Date String (YYYY-MM-DD hh:mm:ss) UTC,Instrument flags,absolute air pressure of the measurement (hPa),sample flow rate (lpm),inlet stack bypass flow (lpm),air temperature of the measurement (°C),ambient temperature measured by the external sensor (°C),aerosol sample conditioner tube jacket temperature (°C),OPC LED temperature (°C),internal box temperature (°C),relative humidity of the measurement (%),span deviation,mass concentration of particles derived from Lorenz-Mie calculation of OPC scattering (μg/m³),mass concentration of particles derived from Lorenz-Mie calculation of OPC scattering (μg/m³),mass concentration of particles derived from Lorenz-Mie calculation of OPC scattering (μg/m³)
DateTimeUTC,F1_M11,P_M11,Q1_M11,Q2_M11,T1_M11,T2_M11,T3_M11,T4_M11,T5_M11,U1_M11,ZSPAN_M11,X2_M11,X0_M11,X1_M11
2024-01-27 07:00:00,SystemResetWarning,0836.9,5.00,000.00,021.4,020.1,000.0,029.8,022.7,15.6,0000.0,0003.83,0007.56,0003.58
2024-01-27 07:01:00,SystemResetWarning,0836.9,5.00,000.00,021.3,020.1,000.0,029.7,022.7,15.6,0000.0,0003.83,0007.56,0003.58
2024-01-27 07:02:00,SystemResetWarning,0836.9,5.00,000.00,021.3,020.0,000.0,029.7,022.6,15.6,0000.0,0003.82,0007.53,0003.58
2024-01-27 07:03:00,SystemResetWarning,0836.9,5.01,000.00,021.3,020.0,000.0,029.7,022.6,15.6,0000.0,0003.82,0007.52,0003.58
2024-01-27 07:04:00,SystemResetWarning,0837.0,5.01,000.00,021.3,020.0,000.0,029.7,022.6,15.6,0000.0,0003.82,0007.44,0003.59
2024-01-27 07:05:00,SystemResetWarning,0837.0,5.00,000.00,021.3,020.0,000.0,029.7,022.6,15.5,0000.0,0003.83,0007.43,0003.59
2024-01-27 07:06:00,SystemResetWarning,0837.0,5.00,000.00,021.3,020.0,000.0,029.7,022.6,15.6,0000.0,0003.82,0006.09,0003.59
2024-01-27 07:07:00,SystemResetWarning,0837.0,5.00,000.00,021.3,020.0,000.0,029.7,022.6,15.5,0000.0,0003.79,0005.12,0003.58
2024-01-27 07:08:00,SystemResetWarning,0836.9,5.00,000.00,021.3,020.0,000.0,029.7,022.6,15.5,0000.0,0003.77,0005.08,0003.59
2024-01-27 07:09:00,SystemResetWarning,0836.9,4.99,000.00,021.3,020.0,000.0,029.7,022.6,15.4,0000.0,0003.78,0005.22,0003.59
2024-01-27 07:10:00,SystemResetWarning,0836.9,5.00,000.00,021.2,019.9,000.0,029.6,022.5,15.4,0000.0,0003.79,0005.23,0003.60
2024-01-27 07:11:00,SystemResetWarning,0837.0,5.00,000.00,021.2,019.9,000.0,029.6,022.5,15.4,0000.0,0003.77,0005.15,0003.60
2024-01-27 07:12:00,SystemResetWarning,0837.0,5.00,000.00,021.2,019.9,000.0,029.6,022.5,15.4,0000.0,0003.78,0005.19,0003.61
2024-01-27 07:13:00,SystemResetWarning,0837.0,5.01,000.00,021.2,019.9,000.0,029.6,022.5,15.4,0000.0,0003.82,0005.45,0003.62
2024-01-27 07:14:00,SystemResetWarning,0837.0,5.00,000.00,021.2,019.9,000.0,029.6,022.5,15.4,0000.0,0003.84,0005.55,0003.63
2024-01-27 07:15:00,SystemResetWarning,0837.0,5.01,000.00,021.2,019.9,000.0,029.6,022.5,15.4,0000.0,0003.85,0005.58,0003.64
2024-01-27 07:16:00,SystemResetWarning,0837.0,5.00,000.00,021.2,019.9,000.0,029.6,022.5,15.4,0000.0,0003.87,0005.61,0003.65
2024-01-27 07:17:00,SystemResetWarning,0837.0,5.00,000.00,021.2,019.9,000.0,029.6,022.5,15.5,0000.0,0003.86,0005.58,0003.65
2024-01-27 07:18:00,SystemResetWarning,0837.0,4.99,000.00,021.2,019.9,000.0,029.6,022.5,15.5,0000.0,0003.88,0005.65,0003.66
2024-01-27 07:19:00,SystemResetWarning,0836.9,5.00,000.00,021.1,019.8,000.0,029.5,022.4,15.5,0000.0,0003.88,0005.62,0003.66
2024-01-27 07:20:00,SystemResetWarning,0836.9,5.00,000.00,021.1,019.8,000.0,029.5,022.4,15.4,0000.0,0003.88,0005.54,0003.65
2024-01-27 07:21:00,SystemResetWarning,0836.9,5.00,000.00,021.1,019.8,000.0,029.5,022.4,15.4,0000.0,0003.88,0005.48,0003.65
2024-01-27 07:22:00,SystemResetWarning,0836.9,4.99,000.00,021.1,019.8,000.0,029.5,022.4,15.4,0000.0,0003.87,0005.42,0003.64
2024-01-27 07:23:00,SystemResetWarning,0836.8,4.99,000.00,021.1,019.8,000.0,029.5,022.4,15.4,0000.0,0003.86,0005.37,0003.63
2024-01-27 07:24:00,SystemResetWarning,0836.8,5.00,000.00,021.1,019.8,000.0,029.5,022.4,15.4,0000.0,0003.84,0005.18,0003.63
2024-01-27 07:25:00,SystemResetWarning,0836.8,5.00,000.00,021.1,019.8,000.0,029.5,022.4,15.4,0000.0,0003.82,0005.07,0003.64
2024-01-27 07:26:00,SystemResetWarning,0836.8,5.01,000.00,021.1,019.8,000.0,029.5,022.4,15.4,0000.0,0003.84,0005.18,0003.65
2024-01-27 07:27:00,SystemResetWarning,0836.8,5.01,000.00,021.1,019.8,000.0,029.5,022.4,15.4,0000.0,0003.83,0005.16,0003.65
2024-01-27 07:28:00,SystemResetWarning,0836.8,5.00,000.00,021.1,019.8,000.0,029.4,022.4,15.4,0000.0,0003.86,0005.23,0003.66
2024-01-27 07:29:00,SystemResetWarning,0836.8,5.00,000.00,021.1,019.8,000.0,029.4,022.4,15.3,0000.0,0003.85,0005.29,0003.66
2024-01-27 07:30:00,SystemResetWarning,0836.8,5.00,000.00,021.0,019.8,000.0,029.4,022.4,15.3,0000.0,0003.85,0005.24,0003.67
2024-01-27 07:31:00,SystemResetWarning,0836.8,5.00,000.00,021.0,019.7,000.0,029.4,022.3,15.3,0000.0,0003.85,0006.02,0003.68
2024-01-27 07:32:00,SystemResetWarning,0836.8,5.00,000.00,021.0,019.7,000.0,029.4,022.3,15.3,0000.0,0003.86,0006.91,0003.69
2024-01-27 07:33:00,SystemResetWarning,0836.8,5.00,000.00,021.0,019.7,000.0,029.4,022.3,15.3,0000.0,0003.89,0007.00,0003.70
2024-01-27 07:34:00,SystemResetWarning,0836.8,5.00,000.00,021.0,019.7,000.0,029.4,022.3,15.3,0000.0,0003.91,0007.07,0003.70
2024-01-27 07:35:00,SystemResetWarning,0836.7,5.00,000.00,021.0,019.7,000.0,029.4,022.3,15.2,0000.0,0003.91,0007.11,0003.69
2024-01-27 07:36:00,SystemResetWarning,0836.8,5.00,000.00,021.0,019.7,000.0,029.4,022.3,15.2,0000.0,0003.91,0007.19,0003.68
2024-01-27 07:37:00,SystemResetWarning,0836.8,5.00,000.00,021.0,019.7,000.0,029.4,022.3,15.2,0000.0,0003.89,0007.13,0003.65
2024-01-27 07:38:00,SystemResetWarning,0836.8,5.00,000.00,021.0,019.6,000.0,029.3,022.3,15.2,0000.0,0003.87,0007.13,0003.63
2024-01-27 07:39:00,SystemResetWarning,0836.7,5.00,000.00,021.0,019.6,000.0,029.3,022.2,15.2,0000.0,0003.85,0007.05,0003.61
2024-01-27 07:40:00,SystemResetWarning,0836.8,5.00,000.00,020.9,019.6,000.0,029.3,022.2,15.2,0000.0,0003.84,0006.94,0003.61
2024-01-27 07:41:00,SystemResetWarning,0836.8,5.00,000.00,020.9,019.6,000.0,029.3,022.2,15.1,0000.0,0003.85,0006.98,0003.61
2024-01-27 07:42:00,SystemResetWarning,0836.8,5.00,000.00,020.9,019.6,000.0,029.3,022.2,14.9,0000.0,0003.85,0006.22,0003.60
2024-01-27 07:43:00,SystemResetWarning,0836.7,5.00,000.00,020.9,019.6,000.0,029.3,022.2,14.8,0000.0,0003.86,0005.47,0003.60
2024-01-27 07:44:00,SystemResetWarning,0836.7,5.01,000.00,020.9,019.6,000.0,029.3,022.2,14.5,0000.0,0003.86,0005.49,0003.60
2024-01-27 07:45:00,SystemResetWarning,0836.6,5.00,000.00,020.9,019.6,000.0,029.3,022.1,14.3,0000.0,0003.84,0005.41,0003.61
2024-01-27 07:46:00,SystemResetWarning,0836.6,5.01,000.00,020.9,019.5,000.0,029.3,022.1,14.2,0000.0,0003.83,0005.36,0003.62
2024-01-27 07:47:00,SystemResetWarning,0836.6,4.99,000.00,020.9,019.5,000.0,029.3,022.1,14.1,0000.0,0003.82,0005.25,0003.64
2024-01-27 07:48:00,SystemResetWarning,0836.6,4.99,000.00,020.8,019.5,000.0,029.2,022.2,14.0,0000.0,0003.82,0005.17,0003.65
2024-01-27 07:49:00,SystemResetWarning,0836.6,5.00,000.00,020.8,019.5,000.0,029.2,022.1,14.1,0000.0,0003.82,0005.12,0003.67
2024-01-27 07:50:00,SystemResetWarning,0836.6,5.01,000.00,020.8,019.5,000.0,029.2,022.1,14.1,0000.0,0003.84,0005.16,0003.69
2024-01-27 07:51:00,SystemResetWarning,0836.6,5.01,000.00,020.8,019.5,000.0,029.2,022.1,14.1,0000.0,0003.85,0005.16,0003.70
2024-01-27 07:52:00,SystemResetWarning,0836.6,5.00,000.00,020.8,019.5,000.0,029.2,022.1,14.1,0000.0,0003.84,0005.12,0003.70
2024-01-27 07:53:00,SystemResetWarning,0836.6,5.00,000.00,020.8,019.5,000.0,029.2,022.1,14.0,0000.0,0003.86,0005.29,0003.71
2024-01-27 07:54:00,SystemResetWarning,0836.6,4.99,000.00,020.8,019.5,000.0,029.2,022.1,14.1,0000.0,0003.87,0005.29,0003.71
2024-01-27 07:55:00,SystemResetWarning,0836.6,5.00,000.00,020.8,019.4,000.0,029.2,022.0,14.4,0000.0,0003.87,0005.33,0003.70
2024-01-27 07:56:00,SystemResetWarning,0836.6,5.00,000.00,020.8,019.4,000.0,029.1,022.0,14.3,0000.0,0003.87,0005.37,0003.70
2024-01-27 07:57:00,SystemResetWarning,0836.6,5.00,000.00,020.7,019.4,000.0,029.1,022.0,14.1,0000.0,0003.87,0005.30,0003.70
2024-01-27 07:58:00,SystemResetWarning,0836.6,5.00,000.00,020.7,019.4,000.0,029.1,022.0,13.9,0000.0,0003.86,0005.29,0003.69
2024-01-27 07:59:00,SystemResetWarning,0836.6,5.00,000.00,020.7,019.4,000.0,029.1,022.0,13.9,0000.0,0003.85,0005.29,0003.68
